* Astronomy

Members Login
Post Info TOPIC: Asteroid 2004 KV18


L

Posts: 131433
Date:
Asteroid 2004 KV18
Permalink  
 


Title: 2004 KV18 - A visitor from the Scattered Disk to the Neptune Trojan population
Authors: Jonathan Horner, Patryk Sofia Lykawka

We have performed a detailed dynamical study of the recently identified Neptunian Trojan 2004 KV18, only the second object to be discovered librating around Neptune's trailing Lagrange point, L5. We find that 2004 KV18 is moving on a highly unstable orbit, and was most likely captured from the Centaur population at some point in the last ~1 Myr, having originated in the Scattered Disk, beyond the orbit of Neptune. The instability of 2004 KV18 is so great that many of the test particles studied leave the Neptunian Trojan cloud within just ~0.1 - 0.3 Myr, and it takes just 37 million years for half of the 91125 test particles created to study its dynamical behaviour to be removed from the Solar system entirely. Unlike the other Neptunian Trojans previously found to display dynamical instability on hundred million year timescales (2001 QR322 and 2008 LC18), 2004 KV18 displays such extreme instability that it must be a temporarily captured Trojan, rather than a primordial member of the Neptunian Trojan population. As such, it offers a fascinating insight into the processes through which small bodies are transferred around the outer Solar system, and represents an exciting addition to the menagerie of the Solar system's small bodies.

Read more (1176kb, PDF)



__________________


L

Posts: 131433
Date:
Permalink  
 

Orbital elements:
2004 KV18
Epoch 2011 Aug. 27.0 TT = JDT 2455800.5                 MPC
M  58.58713              (2000.0)            P               Q
n   0.00596069     Peri.  294.57748     -0.96434694     -0.17976645
a  30.1257920      Node   235.62729     +0.22798044     -0.93698737
e   0.1837787      Incl.   13.60940     -0.13438712     -0.29956417
P 165.35           H    8.9           G   0.15           U   3

MPEC 2011 - O47



__________________
Page 1 of 1  sorted by
Quick Reply

Please log in to post quick replies.



Create your own FREE Forum
Report Abuse
Powered by ActiveBoard